Regional Weather Roundup
Issued by NWS

Home | Current Version | Previous Version | Text Only | Print | Product List | Glossary On
Versions: 1 2 3 4 5 6 7 8 9 10 11 12 13 14 15 16 17 18 19 20 21 22 23 24 25 26 27 28 29 30 31 32 33 34 35 36 37 38 39 40 41 42 43 44 45 46 47 48 49 50
000
ASUS43 KTOP 171759
RWRKS

WEATHER ROUNDUP FOR KANSAS
NATIONAL WEATHER SERVICE GOODLAND KS
100 PM CDT FRI APR 17 2015

NOTE:  "FAIR" INDICATES FEW OR NO CLOUDS BELOW 12,000 FEET WITH NO
SIGNIFICANT WEATHER AND/OR OBSTRUCTIONS TO VISIBILITY.

KSZ001>006-013>018-027>032-041>047-171900-
NORTHWEST KANSAS

CITY           SKY/WX    TMP DP  RH WIND       PRES   REMARKS
GOODLAND       CLOUDY    57  51  80 E14       30.01F
6HR MIN TEMP:  50; 6HR MAX TEMP:  58;

HAYS           PTSUNNY   64  48  55 E14       30.03F
HILL CITY      CLOUDY    64  53  67 SE15G23   30.03F
6HR MIN TEMP:  53; 6HR MAX TEMP:  64;

RUSSELL        CLOUDY    65  56  72 E12       30.01F
6HR MIN TEMP:  55; 6HR MAX TEMP:  65; 6HR PCP: TRACE;

$$

KSZ061>065-074>080-084>089-171900-
SOUTHWEST KANSAS

CITY           SKY/WX    TMP DP  RH WIND       PRES   REMARKS
DODGE CITY     PTSUNNY   65  51  60 SE9       30.00F
6HR MIN TEMP:  52; 6HR MAX TEMP:  65;

ELKHART          N/A    N/A N/A N/A MISG        N/A
GARDEN CITY    CLOUDY    61  53  75 E13       29.99F
6HR MIN TEMP:  48; 6HR MAX TEMP:  61;

GREAT BEND     MOSUNNY   64  54  68 SE6       30.01F
LIBERAL        PTSUNNY   66  55  68 S16G22    29.99S
$$

KSZ066>073-081>083-090>101-171900-
SOUTHEAST KANSAS

CITY           SKY/WX    TMP DP  RH WIND       PRES   REMARKS
CHANUTE        CLOUDY    68  61  78 SE10      30.02F
6HR MIN TEMP:  59; 6HR MAX TEMP:  68; 6HR PCP:  0.22;

COFFEYVILLE    PTSUNNY   70  62  76 E13       29.99F
6HR MIN TEMP:  57; 6HR MAX TEMP:  70; 6HR PCP:  0.20;

HUTCHINSON     PTSUNNY   69  57  65 VRB6      30.00F
6HR MIN TEMP:  57; 6HR MAX TEMP:  69; 6HR PCP: TRACE;

MEDICINE LODGE   N/A     71  53  52 E7        30.00F
NEWTON         PTSUNNY   64  55  72 E10       30.02S
PARSONS        PTSUNNY   68  62  81 VRB7      30.01F
6HR MIN TEMP:  59; 6HR MAX TEMP:  69; 6HR PCP:  0.10;

WICHITA INTL   PTSUNNY   70  58  65 SE7       29.99S
6HR MIN TEMP:  58; 6HR MAX TEMP:  71; 6HR PCP:  0.26;

WICHITA JABRA  MOSUNNY   69  57  65 E7        30.00S
6HR MIN TEMP:  57; 6HR MAX TEMP:  70; 6HR PCP:  0.44;

WINFIELD       PTSUNNY   71  60  68 MISG      30.00F
6HR MIN TEMP:  58; 6HR MAX TEMP:  71;

$$

KSZ007>012-019>026-033>040-048>060-102>105-171900-
NORTHEAST KANSAS

CITY           SKY/WX    TMP DP  RH WIND       PRES   REMARKS
CONCORDIA      CLOUDY    66  58  75 NE5       30.03S
6HR MIN TEMP:  56; 6HR MAX TEMP:  66;

EMPORIA        PTSUNNY   65  57  75 SE7       30.00S
6HR MIN TEMP:  55; 6HR MAX TEMP:  66; 6HR PCP:  0.25;

LAWRENCE       LGT RAIN  65  59  81 E13       30.04F
6HR MIN TEMP:  51; 6HR MAX TEMP:  75; 6HR PCP:  0.06;

MANHATTAN      CLOUDY    69  59  70 E8        29.99F
6HR MIN TEMP:  56; 6HR MAX TEMP:  69;

OLATHE IND     CLOUDY    71  59  65 S12       30.05F
6HR MIN TEMP:  56; 6HR MAX TEMP:  73;

OLATHE EXE     CLOUDY    72  60  66 S13       30.04F
6HR MIN TEMP:  57; 6HR MAX TEMP:  73;

SALINA         CLOUDY    67  58  72 N5        30.02S
6HR MIN TEMP:  56; 6HR MAX TEMP:  67; 6HR PCP:  0.33;

TOPEKA BILLARD CLOUDY    69  61  75 VRB3      30.02F HAZE
6HR MIN TEMP:  52; 6HR MAX TEMP:  72; 6HR PCP:  0.05;

TOPEKA FORBES  CLOUDY    70  58  65 E10       30.00F
6HR MIN TEMP:  53; 6HR MAX TEMP:  71; 6HR PCP: TRACE;

$$


USA.gov is the U.S. government's official web portal to all federal, state and local government web resources and services.